Time,TemperatureF,DewpointF,PressureIn,WindDirection,WindDirectionDegrees,WindSpeedMPH,WindSpeedGustMPH,Humidity,HourlyPrecipIn,Conditions,Clouds,dailyrainin,SoftwareType,DateUTC
2013-02-05 00:01:00,41.0,26.0,-100.00,SSE,155,2.0,4.0,55,-99.99,,,-99.99,,2013-02-05 08:01:00,
2013-02-05 00:11:00,41.0,26.0,-100.00,WSW,240,1.0,3.0,56,-99.99,,,-99.99,,2013-02-05 08:11:00,
2013-02-05 00:21:00,41.0,26.0,-100.00,WSW,240,1.0,3.0,56,-99.99,,,-99.99,,2013-02-05 08:21:00,
2013-02-05 00:31:00,40.0,26.0,-100.00,NNW,333,1.0,3.0,57,-99.99,,,-99.99,,2013-02-05 08:31:00,
2013-02-05 00:41:00,40.0,26.0,-100.00,NNW,333,1.0,3.0,57,-99.99,,,-99.99,,2013-02-05 08:41:00,
2013-02-05 00:52:00,40.0,27.0,-100.00,SE,141,1.0,3.0,59,-99.99,,,-99.99,,2013-02-05 08:52:00,
2013-02-05 01:02:00,40.0,27.0,-100.00,SE,141,1.0,3.0,59,-99.99,,,-99.99,,2013-02-05 09:02:00,
2013-02-05 01:11:00,40.0,26.0,-100.00,NNW,333,1.0,4.0,57,-99.99,,,-99.99,,2013-02-05 09:11:00,
2013-02-05 01:21:00,40.0,26.0,-100.00,NNW,333,1.0,4.0,57,-99.99,,,-99.99,,2013-02-05 09:21:00,
2013-02-05 01:31:00,39.0,26.0,-100.00,North,11,0.0,0.0,60,-99.99,,,-99.99,,2013-02-05 09:31:00,
2013-02-05 01:42:00,39.0,26.0,-100.00,North,11,0.0,0.0,60,-99.99,,,-99.99,,2013-02-05 09:42:00,
2013-02-05 01:52:00,38.0,27.0,-100.00,East,88,1.0,6.0,64,-99.99,,,-99.99,,2013-02-05 09:52:00,
2013-02-05 02:01:00,38.0,27.0,-100.00,East,88,1.0,6.0,64,-99.99,,,-99.99,,2013-02-05 10:01:00,
2013-02-05 02:11:00,38.0,26.0,-100.00,ENE,62,0.0,0.0,63,-99.99,,,-99.99,,2013-02-05 10:11:00,
2013-02-05 02:21:00,38.0,26.0,-100.00,ENE,62,0.0,0.0,63,-99.99,,,-99.99,,2013-02-05 10:21:00,
2013-02-05 02:31:00,38.0,27.0,-100.00,WSW,248,0.0,4.0,64,-99.99,,,-99.99,,2013-02-05 10:31:00,
2013-02-05 02:42:00,38.0,27.0,-100.00,WSW,248,0.0,4.0,64,-99.99,,,-99.99,,2013-02-05 10:42:00,
2013-02-05 02:52:00,38.0,27.0,-100.00,SSW,195,1.0,3.0,64,-99.99,,,-99.99,,2013-02-05 10:52:00,
2013-02-05 03:01:00,38.0,27.0,-100.00,SSW,195,1.0,3.0,64,-99.99,,,-99.99,,2013-02-05 11:01:00,
2013-02-05 03:11:00,37.0,27.0,-100.00,SW,220,0.0,3.0,66,-99.99,,,-99.99,,2013-02-05 11:11:00,
2013-02-05 03:22:00,37.0,27.0,-100.00,SW,220,0.0,3.0,66,-99.99,,,-99.99,,2013-02-05 11:22:00,
2013-02-05 03:32:00,36.0,26.0,-100.00,NE,49,1.0,4.0,66,-99.99,,,-99.99,,2013-02-05 11:32:00,
2013-02-05 03:41:00,36.0,26.0,-100.00,NE,49,1.0,4.0,66,-99.99,,,-99.99,,2013-02-05 11:41:00,
2013-02-05 03:52:00,36.0,26.0,-100.00,NNW,329,0.0,1.0,68,-99.99,,,-99.99,,2013-02-05 11:52:00,
2013-02-05 04:01:00,36.0,26.0,-100.00,NNW,329,0.0,1.0,68,-99.99,,,-99.99,,2013-02-05 12:01:00,
2013-02-05 04:12:00,36.0,26.0,-100.00,West,261,0.0,2.0,69,-99.99,,,-99.99,,2013-02-05 12:12:00,
2013-02-05 04:21:00,36.0,26.0,-100.00,West,261,0.0,2.0,69,-99.99,,,-99.99,,2013-02-05 12:21:00,
2013-02-05 04:32:00,35.0,26.0,-100.00,SW,232,0.0,5.0,70,-99.99,,,-99.99,,2013-02-05 12:32:00,
2013-02-05 04:41:00,35.0,26.0,-100.00,SW,232,0.0,5.0,70,-99.99,,,-99.99,,2013-02-05 12:41:00,
2013-02-05 04:52:00,35.0,26.0,-100.00,WSW,254,1.0,3.0,70,-99.99,,,-99.99,,2013-02-05 12:52:00,
2013-02-05 05:01:00,35.0,26.0,-100.00,WSW,254,1.0,3.0,70,-99.99,,,-99.99,,2013-02-05 13:01:00,
2013-02-05 05:11:00,34.0,26.0,-100.00,ENE,71,1.0,4.0,72,-99.99,,,-99.99,,2013-02-05 13:11:00,
2013-02-05 05:21:00,34.0,26.0,-100.00,ENE,71,1.0,4.0,72,-99.99,,,-99.99,,2013-02-05 13:21:00,
2013-02-05 05:31:00,34.0,26.0,-100.00,East,82,1.0,7.0,73,-99.99,,,-99.99,,2013-02-05 13:31:00,
2013-02-05 05:41:00,34.0,26.0,-100.00,East,82,1.0,7.0,73,-99.99,,,-99.99,,2013-02-05 13:41:00,
2013-02-05 05:52:00,33.0,26.0,-100.00,WSW,241,1.0,6.0,75,-99.99,,,-99.99,,2013-02-05 13:52:00,
2013-02-05 06:01:00,33.0,26.0,-100.00,WSW,241,1.0,6.0,75,-99.99,,,-99.99,,2013-02-05 14:01:00,
2013-02-05 06:12:00,33.0,26.0,-100.00,West,265,1.0,4.0,74,-99.99,,,-99.99,,2013-02-05 14:12:00,
2013-02-05 06:21:00,33.0,26.0,-100.00,West,265,1.0,4.0,74,-99.99,,,-99.99,,2013-02-05 14:21:00,
2013-02-05 06:31:00,32.0,25.0,-100.00,NNE,13,0.0,0.0,76,-99.99,,,-99.99,,2013-02-05 14:31:00,
2013-02-05 06:41:00,32.0,25.0,-100.00,NNE,13,0.0,0.0,76,-99.99,,,-99.99,,2013-02-05 14:41:00,
2013-02-05 06:52:00,33.0,26.0,-100.00,NNE,27,0.0,4.0,77,-99.99,,,-99.99,,2013-02-05 14:52:00,
2013-02-05 07:01:00,33.0,26.0,-100.00,NNE,27,0.0,4.0,77,-99.99,,,-99.99,,2013-02-05 15:01:00,
2013-02-05 07:11:00,32.0,26.0,-100.00,NNW,329,0.0,0.0,77,-99.99,,,-99.99,,2013-02-05 15:11:00,
2013-02-05 07:21:00,32.0,26.0,-100.00,NNW,329,0.0,0.0,77,-99.99,,,-99.99,,2013-02-05 15:21:00,
2013-02-05 07:32:00,32.0,26.0,-100.00,NNE,14,2.0,5.0,78,-99.99,,,-99.99,,2013-02-05 15:32:00,
2013-02-05 07:41:00,32.0,26.0,-100.00,NNE,14,2.0,5.0,78,-99.99,,,-99.99,,2013-02-05 15:41:00,
2013-02-05 07:52:00,33.0,26.0,-100.00,SE,124,1.0,6.0,77,-99.99,,,-99.99,,2013-02-05 15:52:00,
2013-02-05 08:01:00,33.0,26.0,-100.00,SE,124,1.0,6.0,77,-99.99,,,-99.99,,2013-02-05 16:01:00,
2013-02-05 08:11:00,34.0,26.0,-100.00,NE,41,1.0,6.0,73,-99.99,,,-99.99,,2013-02-05 16:11:00,
2013-02-05 08:22:00,34.0,26.0,-100.00,NE,41,1.0,6.0,73,-99.99,,,-99.99,,2013-02-05 16:22:00,
2013-02-05 08:32:00,36.0,27.0,-100.00,SSE,150,2.0,6.0,70,-99.99,,,-99.99,,2013-02-05 16:32:00,
2013-02-05 08:41:00,36.0,27.0,-100.00,SSE,150,2.0,6.0,70,-99.99,,,-99.99,,2013-02-05 16:41:00,
2013-02-05 08:52:00,36.0,27.0,-100.00,SSW,196,2.0,5.0,67,-99.99,,,-99.99,,2013-02-05 16:52:00,
2013-02-05 09:01:00,36.0,27.0,-100.00,SSW,196,2.0,5.0,67,-99.99,,,-99.99,,2013-02-05 17:01:00,
2013-02-05 09:11:00,39.0,27.0,-100.00,SE,128,1.0,5.0,62,-99.99,,,-99.99,,2013-02-05 17:11:00,
2013-02-05 09:21:00,39.0,27.0,-100.00,SE,128,1.0,5.0,62,-99.99,,,-99.99,,2013-02-05 17:21:00,
2013-02-05 09:32:00,39.0,27.0,-100.00,ENE,64,2.0,6.0,62,-99.99,,,-99.99,,2013-02-05 17:32:00,
2013-02-05 09:41:00,39.0,27.0,-100.00,ENE,64,2.0,6.0,62,-99.99,,,-99.99,,2013-02-05 17:41:00,
2013-02-05 09:52:00,41.0,25.0,-100.00,ENE,73,2.0,4.0,52,-99.99,,,-99.99,,2013-02-05 17:52:00,
2013-02-05 10:01:00,41.0,25.0,-100.00,ENE,73,2.0,4.0,52,-99.99,,,-99.99,,2013-02-05 18:01:00,
2013-02-05 10:11:00,42.0,25.0,-100.00,NE,41,3.0,6.0,49,-99.99,,,-99.99,,2013-02-05 18:11:00,
2013-02-05 10:21:00,42.0,25.0,-100.00,NE,41,3.0,6.0,49,-99.99,,,-99.99,,2013-02-05 18:21:00,
2013-02-05 10:32:00,46.0,24.0,-100.00,East,82,3.0,6.0,42,-99.99,,,-99.99,,2013-02-05 18:32:00,
2013-02-05 10:42:00,46.0,24.0,-100.00,East,82,3.0,6.0,42,-99.99,,,-99.99,,2013-02-05 18:42:00,
2013-02-05 10:52:00,47.0,26.0,-100.00,ESE,114,4.0,8.0,44,-99.99,,,-99.99,,2013-02-05 18:52:00,
2013-02-05 11:02:00,47.0,26.0,-100.00,ESE,114,4.0,8.0,44,-99.99,,,-99.99,,2013-02-05 19:02:00,
2013-02-05 11:11:00,49.0,22.0,-100.00,East,90,2.0,6.0,34,-99.99,,,-99.99,,2013-02-05 19:11:00,
2013-02-05 11:21:00,49.0,22.0,-100.00,East,90,2.0,6.0,34,-99.99,,,-99.99,,2013-02-05 19:21:00,
2013-02-05 11:31:00,51.0,18.0,-100.00,ENE,78,2.0,6.0,27,-99.99,,,-99.99,,2013-02-05 19:31:00,
2013-02-05 11:42:00,51.0,18.0,-100.00,ENE,78,2.0,6.0,27,-99.99,,,-99.99,,2013-02-05 19:42:00,
2013-02-05 11:52:00,52.0,17.0,-100.00,NW,315,1.0,4.0,24,-99.99,,,-99.99,,2013-02-05 19:52:00,
2013-02-05 12:01:00,52.0,17.0,-100.00,NW,315,1.0,4.0,24,-99.99,,,-99.99,,2013-02-05 20:01:00,
2013-02-05 12:11:00,55.0,8.0,-100.00,NNW,339,3.0,6.0,15,-99.99,,,-99.99,,2013-02-05 20:11:00,
2013-02-05 12:21:00,55.0,8.0,-100.00,NNW,339,3.0,6.0,15,-99.99,,,-99.99,,2013-02-05 20:21:00,
2013-02-05 12:32:00,57.0,11.0,-100.00,SE,145,2.0,9.0,16,-99.99,,,-99.99,,2013-02-05 20:32:00,
2013-02-05 12:41:00,57.0,11.0,-100.00,SE,145,2.0,9.0,16,-99.99,,,-99.99,,2013-02-05 20:41:00,
2013-02-05 12:52:00,58.0,10.0,-100.00,WNW,294,3.0,9.0,15,-99.99,,,-99.99,,2013-02-05 20:52:00,
2013-02-05 13:01:00,58.0,10.0,-100.00,WNW,294,3.0,9.0,15,-99.99,,,-99.99,,2013-02-05 21:01:00,
2013-02-05 13:11:00,59.0,10.0,-100.00,SSW,196,6.0,15.0,14,-99.99,,,-99.99,,2013-02-05 21:11:00,
2013-02-05 13:21:00,59.0,10.0,-100.00,SSW,196,6.0,15.0,14,-99.99,,,-99.99,,2013-02-05 21:21:00,
2013-02-05 13:32:00,58.0,10.0,-100.00,SSW,206,8.0,25.0,15,-99.99,,,-99.99,,2013-02-05 21:32:00,
2013-02-05 13:41:00,58.0,10.0,-100.00,SSW,206,8.0,25.0,15,-99.99,,,-99.99,,2013-02-05 21:41:00,
2013-02-05 13:52:00,57.0,12.0,-100.00,SW,222,8.0,18.0,16,-99.99,,,-99.99,,2013-02-05 21:52:00,
2013-02-05 14:01:00,57.0,12.0,-100.00,SW,222,8.0,18.0,16,-99.99,,,-99.99,,2013-02-05 22:01:00,
2013-02-05 14:11:00,58.0,9.0,-100.00,SW,229,8.0,19.0,14,-99.99,,,-99.99,,2013-02-05 22:11:00,
2013-02-05 14:21:00,58.0,9.0,-100.00,SW,229,8.0,19.0,14,-99.99,,,-99.99,,2013-02-05 22:21:00,
2013-02-05 14:31:00,58.0,9.0,-100.00,SSW,196,9.0,18.0,14,-99.99,,,-99.99,,2013-02-05 22:31:00,
2013-02-05 14:41:00,58.0,9.0,-100.00,SSW,196,9.0,18.0,14,-99.99,,,-99.99,,2013-02-05 22:41:00,
2013-02-05 14:52:00,58.0,9.0,-100.00,SSW,212,9.0,19.0,14,-99.99,,,-99.99,,2013-02-05 22:52:00,
2013-02-05 15:01:00,58.0,9.0,-100.00,SSW,212,9.0,19.0,14,-99.99,,,-99.99,,2013-02-05 23:01:00,
2013-02-05 15:11:00,58.0,7.0,-100.00,SSW,213,7.0,16.0,13,-99.99,,,-99.99,,2013-02-05 23:11:00,
2013-02-05 15:21:00,58.0,7.0,-100.00,SSW,213,7.0,16.0,13,-99.99,,,-99.99,,2013-02-05 23:21:00,
2013-02-05 15:32:00,57.0,8.0,-100.00,SSW,209,6.0,17.0,14,-99.99,,,-99.99,,2013-02-05 23:32:00,
2013-02-05 15:41:00,57.0,8.0,-100.00,SSW,209,6.0,17.0,14,-99.99,,,-99.99,,2013-02-05 23:41:00,
2013-02-05 15:52:00,57.0,11.0,-100.00,South,184,6.0,18.0,16,-99.99,,,-99.99,,2013-02-05 23:52:00,
2013-02-05 16:01:00,57.0,11.0,-100.00,South,184,6.0,18.0,16,-99.99,,,-99.99,,2013-02-06 00:01:00,
2013-02-05 16:11:00,55.0,14.0,-100.00,South,176,6.0,15.0,19,-99.99,,,-99.99,,2013-02-06 00:11:00,
2013-02-05 16:21:00,55.0,14.0,-100.00,South,176,6.0,15.0,19,-99.99,,,-99.99,,2013-02-06 00:21:00,
2013-02-05 16:32:00,55.0,15.0,-100.00,SSW,213,5.0,14.0,20,-99.99,,,-99.99,,2013-02-06 00:32:00,
2013-02-05 16:42:00,55.0,15.0,-100.00,SSW,213,5.0,14.0,20,-99.99,,,-99.99,,2013-02-06 00:42:00,
2013-02-05 16:52:00,54.0,13.0,-100.00,SW,217,7.0,22.0,19,-99.99,,,-99.99,,2013-02-06 00:52:00,
2013-02-05 17:01:00,54.0,13.0,-100.00,SW,217,7.0,22.0,19,-99.99,,,-99.99,,2013-02-06 01:01:00,
2013-02-05 17:11:00,53.0,13.0,-100.00,WSW,240,6.0,17.0,20,-99.99,,,-99.99,,2013-02-06 01:11:00,
2013-02-05 17:21:00,53.0,13.0,-100.00,WSW,240,6.0,17.0,20,-99.99,,,-99.99,,2013-02-06 01:21:00,
2013-02-05 17:32:00,52.0,14.0,-100.00,SW,226,6.0,18.0,22,-99.99,,,-99.99,,2013-02-06 01:32:00,
2013-02-05 17:41:00,52.0,14.0,-100.00,SW,226,6.0,18.0,22,-99.99,,,-99.99,,2013-02-06 01:41:00,
2013-02-05 17:52:00,50.0,15.0,-100.00,WSW,247,6.0,17.0,24,-99.99,,,-99.99,,2013-02-06 01:52:00,
2013-02-05 18:01:00,50.0,15.0,-100.00,WSW,247,6.0,17.0,24,-99.99,,,-99.99,,2013-02-06 02:01:00,
2013-02-05 18:11:00,49.0,16.0,-100.00,WSW,251,7.0,20.0,26,-99.99,,,-99.99,,2013-02-06 02:11:00,
2013-02-05 18:21:00,49.0,16.0,-100.00,WSW,251,7.0,20.0,26,-99.99,,,-99.99,,2013-02-06 02:21:00,
2013-02-05 18:32:00,48.0,15.0,-100.00,WSW,253,7.0,18.0,26,-99.99,,,-99.99,,2013-02-06 02:32:00,
2013-02-05 18:42:00,48.0,15.0,-100.00,WSW,253,7.0,18.0,26,-99.99,,,-99.99,,2013-02-06 02:42:00,
2013-02-05 18:52:00,47.0,15.0,-100.00,WSW,257,10.0,22.0,27,-99.99,,,-99.99,,2013-02-06 02:52:00,
2013-02-05 19:02:00,47.0,15.0,-100.00,WSW,257,10.0,22.0,27,-99.99,,,-99.99,,2013-02-06 03:02:00,
2013-02-05 19:12:00,47.0,17.0,-100.00,WSW,257,9.0,21.0,30,-99.99,,,-99.99,,2013-02-06 03:12:00,
2013-02-05 19:21:00,47.0,17.0,-100.00,WSW,257,9.0,21.0,30,-99.99,,,-99.99,,2013-02-06 03:21:00,
2013-02-05 19:32:00,46.0,17.0,-100.00,WSW,256,11.0,27.0,31,-99.99,,,-99.99,,2013-02-06 03:32:00,
2013-02-05 19:41:00,45.0,16.0,-100.00,WSW,244,9.0,24.0,31,-99.99,,,-99.99,,2013-02-06 03:41:00,
2013-02-05 19:42:00,46.0,17.0,-100.00,WSW,256,11.0,27.0,31,-99.99,,,-99.99,,2013-02-06 03:42:00,
2013-02-05 19:52:00,45.0,17.0,-100.00,WSW,246,10.0,25.0,31,-99.99,,,-99.99,,2013-02-06 03:52:00,
2013-02-05 20:01:00,45.0,17.0,-100.00,WSW,246,10.0,25.0,31,-99.99,,,-99.99,,2013-02-06 04:01:00,
2013-02-05 20:11:00,45.0,16.0,-100.00,WSW,244,9.0,24.0,31,-99.99,,,-99.99,,2013-02-06 04:11:00,
2013-02-05 20:21:00,45.0,16.0,-100.00,WSW,244,9.0,24.0,31,-99.99,,,-99.99,,2013-02-06 04:21:00,
2013-02-05 20:31:00,45.0,16.0,-100.00,WSW,244,9.0,24.0,31,-99.99,,,-99.99,,2013-02-06 04:31:00,
2013-02-05 21:01:00,43.0,16.0,-100.00,WSW,256,6.0,15.0,33,-99.99,,,-99.99,,2013-02-06 05:01:00,
2013-02-05 21:12:00,42.0,16.0,-100.00,West,265,4.0,10.0,34,-99.99,,,-99.99,,2013-02-06 05:12:00,
2013-02-05 21:22:00,42.0,16.0,-100.00,West,265,4.0,10.0,34,-99.99,,,-99.99,,2013-02-06 05:22:00,
2013-02-05 21:31:00,41.0,22.0,-100.00,WNW,301,8.0,16.0,47,-99.99,,,-99.99,,2013-02-06 05:31:00,
2013-02-05 21:41:00,41.0,22.0,-100.00,WNW,301,8.0,16.0,47,-99.99,,,-99.99,,2013-02-06 05:41:00,
2013-02-05 21:53:00,41.0,22.0,-100.00,West,277,7.0,14.0,46,-99.99,,,-99.99,,2013-02-06 05:53:00,
2013-02-05 22:01:00,41.0,22.0,-100.00,West,277,7.0,14.0,46,-99.99,,,-99.99,,2013-02-06 06:01:00,
2013-02-05 22:11:00,41.0,21.0,-100.00,West,260,7.0,17.0,45,-99.99,,,-99.99,,2013-02-06 06:11:00,
2013-02-05 22:21:00,41.0,21.0,-100.00,West,260,7.0,17.0,45,-99.99,,,-99.99,,2013-02-06 06:21:00,
2013-02-05 22:31:00,40.0,19.0,-100.00,West,272,4.0,10.0,42,-99.99,,,-99.99,,2013-02-06 06:31:00,
2013-02-05 22:41:00,40.0,19.0,-100.00,West,272,4.0,10.0,42,-99.99,,,-99.99,,2013-02-06 06:41:00,
2013-02-05 22:52:00,39.0,19.0,-100.00,WNW,284,4.0,9.0,44,-99.99,,,-99.99,,2013-02-06 06:52:00,
2013-02-05 23:01:00,39.0,19.0,-100.00,WNW,284,4.0,9.0,44,-99.99,,,-99.99,,2013-02-06 07:01:00,
2013-02-05 23:11:00,38.0,19.0,-100.00,NW,315,3.0,6.0,46,-99.99,,,-99.99,,2013-02-06 07:11:00,
2013-02-05 23:21:00,38.0,19.0,-100.00,NW,315,3.0,6.0,46,-99.99,,,-99.99,,2013-02-06 07:21:00,
2013-02-05 23:32:00,36.0,23.0,-100.00,NNW,329,8.0,13.0,57,-99.99,,,-99.99,,2013-02-06 07:32:00,
2013-02-05 23:41:00,36.0,23.0,-100.00,NNW,329,8.0,13.0,57,-99.99,,,-99.99,,2013-02-06 07:41:00,
2013-02-05 23:52:00,37.0,18.0,-100.00,NW,312,7.0,13.0,46,-99.99,,,-99.99,,2013-02-06 07:52:00,